カタログに戻る

SKY MUSTER

運用中通信GEO
NORAD 40940·PAYLOAD·🇦🇺 Australia

打ち上げ Sep 30, 2015 から Guiana Space Centre

Loading…

TLE

最新Source: Space-Track

元期: Sep 14, 2026, 12:45 UTC

1 40940U 15054A   26257.53162873 -.00000286  00000-0  00000-0 0  9996
2 40940   0.0202 238.5852 0001738 286.9171 159.6533  1.00272463 40156

AllMySatでSKY MUSTERをリアルタイム追跡

Download on the App Store